Location: Audinghen
(50.8518°N, 1.6129°E)
Time: 05:39:19
(UTC+00:00)

USA 215 - Pass Details

Date: 07 August 2020
Orbit: 1102 x 1106 km, 123.0° (Epoch: 08 August)

Event Time Altitude Azimuth Distance (km) Brightness Sun altitude
Rises 03:22:42 0° 60° (ENE) 3,929 8.2 -9.5°
Reaches altitude 10° 03:25:11 10° 59° (ENE) 2,969 7.1 -9.2°
Maximum altitude 03:31:46 83° 333° (NNW) 1,116 3.4 -8.4°
Drops below altitude 10° 03:38:18 10° 247° (WSW) 2,958 4.9 -7.6°
Enters shadow 03:38:48 - 247° (WSW) 3,150 5.0 -7.5°
